Weather History for KANE - November, 2012

Change the Weather History Date:

Sunday, November 18, 2012

  Actual Average Record
Temperature  
Mean Temperature 52 °F -  
Max Temperature 59 °F 37 °F 62 °F (2001)
Min Temperature 46 °F 23 °F 8 °F (2014)
Degree Days  
Heating Degree Days 12    
Growing Degree Days 2 (Base 50)    
Moisture  
Dew Point 34 °F    
Average Humidity 52    
Maximum Humidity 58    
Minimum Humidity 38    
Precipitation  
Precipitation 0.00 in - - ()
Sea Level Pressure  
Sea Level Pressure 30.13 in    
Wind  
Wind Speed 14 mph (SSE)    
Max Wind Speed 18 mph    
Max Gust Speed 25 mph    
Visibility 10 miles    
Events      
Averages and records for this station are not official NWS values.
T = Trace of Precipitation, MM = Missing Value Source: NWS Daily Summary

Daily Weather History Graph

Daily Weather History Graph

Search for Another Location

Airport or City:

Trip Planner

Search our weather history database for the weather conditions in past years. The results will help you decide how hot, cold, wet, or windy it might be!

Date:

Astronomy

Nov. 18, 2012 Rise Set
Actual Time 7:15 AM CST 4:40 PM CST
Civil Twilight 6:43 AM CST 5:12 PM CST
Nautical Twilight 6:07 AM CST 5:48 PM CST
Astronomical Twilight 5:32 AM CST 6:23 PM CST
Moon 11:40 AM CST (11/18) 10:04 PM CST (11/18)
Length of Visible Light 10h 28m
Length of Day
9h 24m
Waxing Crescent, 30% of the Moon is Illuminated
Nov 18
Waxing Crescent
Nov 20
First Quarter
Nov 28
Full
Dec 6
Last Quarter
Dec 13
New

Hourly Weather History & Observations

Time (CST) Temp. Windchill Dew Point Humidity Pressure Visibility Wind Dir Wind Speed Gust Speed Precip Events Conditions
12:14 AM 51.8 °F - 35.6 °F 54% 30.19 in 10.0 mi SSE 16.1 mph 25.3 mph N/A   Overcast
12:34 AM 51.8 °F - 35.6 °F 54% 30.19 in 10.0 mi SSE 17.3 mph 21.9 mph N/A   Overcast
12:54 AM 51.8 °F - 35.6 °F 54% 30.19 in 10.0 mi SSE 17.3 mph 21.9 mph N/A   Overcast
1:14 AM 51.8 °F - 35.6 °F 54% 30.18 in 10.0 mi SSE 15.0 mph 21.9 mph N/A   Overcast
1:33 AM 51.8 °F - 33.8 °F 50% 30.18 in 10.0 mi SSE 17.3 mph 21.9 mph N/A   Overcast
1:54 AM 51.8 °F - 33.8 °F 50% 30.18 in 10.0 mi SSE 15.0 mph 24.2 mph N/A   Overcast
2:14 AM 51.8 °F - 33.8 °F 50% 30.18 in 10.0 mi SSE 16.1 mph 24.2 mph N/A   Overcast
2:33 AM 50.0 °F - 33.8 °F 54% 30.18 in 10.0 mi SSE 15.0 mph 19.6 mph N/A   Overcast
2:54 AM 50.0 °F - 33.8 °F 54% 30.17 in 10.0 mi SSE 15.0 mph 21.9 mph N/A   Overcast
3:14 AM 50.0 °F - 33.8 °F 54% 30.16 in 10.0 mi SSE 13.8 mph - N/A   Overcast
3:33 AM 50.0 °F - 33.8 °F 54% 30.16 in 10.0 mi SSE 13.8 mph 19.6 mph N/A   Overcast
3:54 AM 50.0 °F - 33.8 °F 54% 30.15 in 10.0 mi SSE 13.8 mph 18.4 mph N/A   Overcast
4:14 AM 50.0 °F - 33.8 °F 54% 30.15 in 10.0 mi SSE 12.7 mph - N/A   Overcast
4:33 AM 50.0 °F - 33.8 °F 54% 30.15 in 10.0 mi SSE 12.7 mph 20.7 mph N/A   Overcast
4:54 AM 50.0 °F - 33.8 °F 54% 30.15 in 10.0 mi SSE 13.8 mph - N/A   Overcast
5:14 AM 48.2 °F - 32.0 °F 54% 30.15 in 10.0 mi SSE 12.7 mph 16.1 mph N/A   Mostly Cloudy
5:34 AM 48.2 °F - 32.0 °F 54% 30.15 in 10.0 mi SE 12.7 mph 17.3 mph N/A   Clear
5:54 AM 48.2 °F - 32.0 °F 54% 30.14 in 10.0 mi SSE 11.5 mph - N/A   Clear
6:14 AM 48.2 °F - 32.0 °F 54% 30.14 in 10.0 mi SSE 12.7 mph - N/A   Clear
6:34 AM 46.4 °F 40.4 °F 32.0 °F 57% 30.14 in 10.0 mi SSE 13.8 mph 18.4 mph N/A   Clear
6:45 AM 46.4 °F 41.1 °F 32.0 °F 57% 30.13 in 10.0 mi SE 11.5 mph - N/A   Partly Cloudy
6:54 AM 46.4 °F 41.1 °F 32.0 °F 57% 30.13 in 10.0 mi SE 11.5 mph - N/A   Clear
7:50 AM 46.4 °F 41.1 °F 32.0 °F 57% 30.13 in 10.0 mi SE 11.5 mph - N/A   Partly Cloudy
8:45 AM 48.2 °F - 32.0 °F 54% 30.13 in 10.0 mi SSE 11.5 mph - N/A   Partly Cloudy
9:45 AM 48.2 °F - 32.0 °F 54% 30.13 in 10.0 mi SSE 12.7 mph - N/A   Partly Cloudy
10:45 AM 51.8 °F - 32.0 °F 47% 30.12 in 10.0 mi South 17.3 mph 20.7 mph N/A   Partly Cloudy
11:45 AM 53.6 °F - 32.0 °F 44% 30.10 in 10.0 mi SSE 16.1 mph 21.9 mph N/A   Clear
1:55 PM 57.2 °F - 32.0 °F 38% 30.07 in 10.0 mi SSE 15.0 mph 20.7 mph N/A   Partly Cloudy
2:45 PM 59.0 °F - 33.8 °F 39% 30.07 in 10.0 mi SSE 17.3 mph - N/A   Scattered Clouds
3:45 PM 57.2 °F - 33.8 °F 41% 30.07 in 10.0 mi SSE 12.7 mph - N/A   Scattered Clouds
4:55 PM 53.6 °F - 33.8 °F 47% 30.08 in 10.0 mi SE 6.9 mph - N/A   Scattered Clouds
5:50 PM 55.4 °F - 33.8 °F 44% 30.08 in 10.0 mi SSE 11.5 mph - N/A   Scattered Clouds
6:55 PM 53.6 °F - 35.6 °F 51% 30.08 in 10.0 mi SSE 11.5 mph - N/A   Scattered Clouds
7:47 PM 53.6 °F - 35.6 °F 51% 30.08 in 10.0 mi SSE 18.4 mph - N/A   Scattered Clouds
8:45 PM 51.8 °F - 35.6 °F 54% 30.09 in 10.0 mi SSE 15.0 mph - N/A   Mostly Cloudy
9:14 PM 51.8 °F - 35.6 °F 54% 30.09 in 10.0 mi SSE 13.8 mph - N/A   Clear
9:34 PM 51.8 °F - 35.6 °F 54% 30.09 in 10.0 mi SSE 12.7 mph - N/A   Clear
9:54 PM 51.8 °F - 35.6 °F 54% 30.09 in 10.0 mi SSE 10.4 mph 17.3 mph N/A   Clear
10:34 PM 51.8 °F - 35.6 °F 54% 30.09 in 10.0 mi SSE 10.4 mph - N/A   Clear
11:14 PM 51.8 °F - 35.6 °F 54% 30.09 in 10.0 mi SSE 9.2 mph - N/A   Clear
11:34 PM 50.0 °F - 35.6 °F 58% 30.09 in 10.0 mi SSE 11.5 mph - N/A   Clear
11:54 PM 50.0 °F - 35.6 °F 58% 30.09 in 10.0 mi SSE 10.4 mph - N/A   Scattered Clouds